GFSFLT2_925_spd_300.txt.gz
Wind_Speed
22 18 17 16 13 13 11 10 9 8 6 5 5 5 5 6 6 5 6 6 5 5 5 5 7 8 9 7 5 4 5 5
23 20 17 18 16 14 11 11 10 9 7 5 4 3 4 5 6 5 3 1 3 4 4 4 4 5 4 3 3 3 3 3
25 20 18 18 16 16 15 12 10 8 8 6 5 4 4 5 5 6 4 2 1 2 3 4 5 6 4 2 1 1 3 3
26 25 18 18 18 17 17 15 15 11 8 6 5 6 6 7 8 8 7 5 5 4 4 5 6 8 7 5 3 5 6 6
27 24 22 20 20 19 21 20 17 15 12 12 6 5 7 9 11 12 11 10 8 7 7 6 6 8 8 6 5 5 6 6
27 25 25 26 25 26 25 24 23 22 18 14 13 8 6 8 10 12 12 13 13 11 9 7 6 8 8 8 7 7 6 7
28 26 25 24 24 24 25 26 26 25 22 20 17 12 11 11 9 9 10 12 15 17 15 11 10 10 11 13 13 11 10 9
28 25 22 23 24 24 24 24 24 25 26 25 21 20 14 12 9 10 10 9 12 15 17 17 16 15 16 16 16 15 13 12
29 26 22 22 23 23 24 24 24 25 26 25 25 24 22 18 16 11 12 11 13 14 14 15 17 20 21 18 17 19 20 16
25 24 23 21 22 22 22 22 24 25 26 25 25 25 24 23 22 22 15 12 14 13 11 12 7 10 15 18 20 18 15 19
24 25 23 20 19 20 22 23 24 25 26 27 27 26 24 24 24 23 22 19 16 14 12 14 17 14 19 19 18 18 19 21
19 22 23 21 18 18 21 23 24 25 26 26 26 27 27 27 25 23 22 21 22 21 16 12 15 16 21 31 28 20 18 22
17 19 22 23 23 22 21 23 23 25 24 24 25 26 26 29 29 26 22 22 23 22 23 21 13 11 16 23 25 28 21 18
11 16 20 22 23 22 17 18 20 21 22 23 23 25 25 27 29 27 25 21 22 23 22 21 15 18 9 13 4 13 17 14
8 12 15 18 19 19 19 18 19 23 24 24 23 22 23 23 26 26 25 26 24 22 22 20 17 16 17 5 3 3 8 4
5 7 11 14 15 20 21 20 19 18 19 20 21 21 22 22 23 24 22 24 26 24 21 20 19 16 16 15 12 9 4 5
2 1 4 7 11 15 17 17 15 15 15 16 18 18 19 20 21 22 23 22 22 22 23 22 20 17 13 17 16 19 11 5
4 5 5 3 5 7 10 13 15 17 17 16 17 17 17 17 18 18 19 20 21 21 21 22 20 17 17 14 14 9 15 8
8 9 9 7 6 6 6 8 11 13 15 15 15 16 17 17 17 17 17 17 18 18 20 21 21 18 17 16 12 14 20 18
12 12 12 11 11 10 8 7 8 10 11 13 13 13 13 13 14 14 15 14 15 16 17 19 21 18 17 17 14 12 16 17

GFSFLT2_925_spd_306.txt.gz
Wind_Speed
13 13 13 14 13 10 9 8 8 7 6 6 6 6 7 7 5 3 1 1 1 2 2 3 3 2 2 2 2 3 3 3
13 13 12 12 12 10 11 8 7 7 6 4 5 8 7 7 9 6 4 3 3 3 4 3 3 3 3 3 3 2 1 1
17 15 15 13 11 11 9 10 11 10 9 4 7 3 3 4 5 6 5 4 4 5 6 7 7 7 8 6 5 4 3 3
18 18 17 13 13 15 15 14 13 14 13 11 7 6 5 7 6 7 7 5 5 5 5 7 7 7 8 8 5 5 5 4
18 17 17 15 16 13 14 13 14 14 17 13 11 7 7 6 5 5 5 7 5 6 6 5 6 7 7 8 7 7 6 5
17 17 17 17 14 14 14 15 14 15 16 19 15 11 10 11 9 6 7 5 6 6 7 7 6 7 8 8 8 8 8 8
17 17 17 16 16 14 15 15 15 15 16 18 16 18 16 12 11 12 11 11 8 8 8 8 8 8 8 9 10 11 10 10
15 16 16 16 16 16 16 15 15 15 16 18 17 15 14 13 12 13 12 12 11 10 9 9 8 8 9 10 12 12 11 11
15 14 15 15 14 14 14 14 15 15 16 19 20 19 16 14 14 14 14 13 14 13 11 10 9 8 6 5 10 11 12 13
14 13 12 13 13 14 13 14 15 15 16 16 18 19 19 16 15 14 15 13 13 13 12 13 12 14 18 11 13 11 12 11
13 12 12 10 10 11 12 13 14 14 15 16 17 18 19 16 16 16 16 14 15 15 13 13 11 13 15 18 21 16 13 11
12 13 13 11 9 8 10 12 13 13 14 15 16 16 17 16 15 17 16 16 16 17 14 13 9 14 16 17 21 21 16 15
11 13 13 12 11 11 10 11 12 13 14 15 15 16 16 17 15 16 16 17 17 18 17 15 13 16 12 13 14 18 17 15
9 11 12 13 12 11 9 8 9 11 12 13 15 15 15 15 16 15 16 15 17 18 19 18 13 16 12 11 6 8 5 9
5 7 8 10 10 10 8 9 9 11 11 12 12 13 14 14 14 14 14 15 15 16 17 16 15 14 11 10 5 4 18 4
2 4 5 7 9 11 13 13 14 13 12 12 11 11 11 11 12 13 13 12 14 14 15 14 14 14 11 11 6 7 3 6
3 4 5 6 7 8 9 11 11 11 13 14 13 12 11 11 11 11 11 11 11 12 13 14 12 12 11 11 9 6 3 6
6 6 5 6 7 7 8 9 10 12 13 13 14 13 12 11 11 11 11 11 10 10 9 10 10 9 10 9 7 6 10 7
7 7 7 7 9 10 10 11 11 11 11 12 13 13 12 12 12 11 10 10 10 10 9 8 8 8 8 9 8 8 10 12
5 7 9 10 12 13 14 14 14 14 14 14 14 14 13 12 12 12 12 12 12 11 11 10 9 9 8 8 10 9 9 11

GFSFLT2_925_spd_309.txt.gz
Wind_Speed
12 13 13 12 12 13 11 11 10 9 8 7 7 8 8 8 6 5 4 5 6 6 6 5 3 3 4 5 5 4 4 4
13 13 13 12 11 11 12 14 13 13 11 6 6 4 8 6 7 9 6 5 6 7 7 7 6 6 6 6 6 4 5 5
15 15 13 11 15 16 16 16 16 15 14 8 12 6 7 7 6 9 8 7 6 7 8 9 10 9 8 8 9 9 12 4
14 15 14 12 11 11 13 13 13 16 18 14 12 12 10 10 10 12 10 8 9 5 6 9 8 8 10 7 8 7 4 5
15 14 14 13 12 12 12 12 14 14 18 18 20 12 11 12 10 11 11 9 15 6 9 7 4 9 9 9 9 6 8 6
15 15 15 15 13 13 12 13 13 14 15 19 16 17 16 14 11 13 13 14 16 15 15 8 11 10 10 10 9 9 11 13
15 15 15 15 15 14 14 14 14 14 16 18 17 15 15 14 13 13 12 13 14 14 16 17 14 12 11 11 11 10 10 11
13 15 15 14 14 14 14 14 14 15 16 19 19 17 16 14 13 12 14 14 15 15 14 15 16 18 12 13 14 12 11 14
12 12 13 13 13 13 14 14 14 15 16 18 19 19 17 16 14 14 15 14 13 13 12 12 13 16 15 9 11 12 13 14
13 12 12 12 12 12 12 13 13 14 15 16 18 19 19 16 16 17 16 14 15 14 15 14 14 14 13 16 17 15 13 13
12 12 12 11 10 10 10 11 12 12 13 15 17 18 19 16 17 18 17 16 16 17 15 15 15 15 16 17 19 19 18 15
11 12 12 10 10 8 9 10 10 10 11 13 15 16 17 17 16 17 17 17 17 19 17 16 14 17 21 19 17 17 20 19
9 11 11 10 11 12 11 11 10 10 11 13 14 15 15 15 15 16 17 16 18 19 20 18 15 19 17 19 16 18 18 16
7 9 11 11 11 11 8 9 9 10 11 12 13 13 14 15 15 15 15 15 17 18 20 20 17 18 18 19 7 4 21 6
5 7 8 10 10 11 11 9 10 12 13 14 12 13 13 13 14 14 15 15 16 16 17 18 17 17 16 12 6 6 21 14
2 4 6 8 10 10 10 11 12 11 13 13 13 13 12 13 13 13 13 13 14 15 16 16 15 16 15 13 7 7 4 7
1 2 3 4 6 8 10 11 12 12 13 12 12 12 12 12 13 13 13 13 13 14 14 14 14 14 15 13 11 12 7 11
2 2 2 2 5 6 8 9 11 13 13 13 14 13 13 12 14 13 13 13 14 14 13 13 13 13 13 14 13 12 13 15
4 4 4 4 5 7 10 11 13 14 14 15 16 16 15 14 14 13 13 13 13 14 14 14 13 13 13 14 14 13 14 14
4 5 6 7 9 11 13 14 16 17 17 18 19 19 18 17 17 16 16 16 15 15 15 15 15 15 16 15 16 16 15 15

GFSFLT2_925_spd_312.txt.gz
Wind_Speed
13 16 16 14 13 15 16 16 14 12 12 9 9 6 6 8 8 11 11 9 9 8 8 7 6 7 8 8 7 5 5 1
15 14 13 16 18 17 17 19 19 14 10 8 15 13 10 5 9 15 13 11 10 9 9 9 8 8 7 8 8 8 11 16
15 15 14 14 15 16 17 18 16 19 18 15 12 12 16 3 10 13 14 14 12 10 8 9 9 10 7 6 9 9 11 9
16 17 15 17 12 15 16 19 19 23 22 21 23 17 12 12 11 11 13 15 13 19 15 11 9 7 14 11 10 6 10 8
15 16 18 16 14 15 18 15 19 19 24 21 20 20 20 19 17 15 14 14 12 17 11 15 18 7 13 13 15 11 12 8
15 15 16 17 17 16 15 17 18 19 21 23 20 20 17 18 18 19 24 20 19 19 18 16 12 12 12 9 13 11 14 16
14 14 16 16 18 16 17 17 18 17 20 23 23 21 22 20 19 19 19 20 23 25 25 24 21 18 17 12 13 13 15 15
12 14 14 15 15 15 15 16 17 18 19 22 22 19 20 21 20 19 20 20 21 20 22 23 24 20 24 21 14 8 9 10
12 12 13 14 14 14 15 14 15 16 17 19 21 21 20 19 21 19 23 22 21 20 23 21 20 24 23 25 23 17 20 17
13 12 12 12 12 12 13 14 14 16 17 18 20 21 18 19 20 20 22 20 23 24 24 25 23 22 22 22 23 26 26 24
11 12 11 12 8 8 11 13 14 14 16 18 19 20 20 19 19 21 20 20 22 23 22 25 28 22 26 24 24 23 23 20
11 11 10 11 13 13 12 14 12 13 15 17 18 19 18 19 19 20 20 20 22 25 25 24 26 24 27 28 23 20 20 17
8 10 11 10 10 10 11 9 11 12 12 13 16 15 18 17 18 18 19 19 21 23 25 25 26 27 25 34 22 19 14 11
7 9 10 10 11 10 3 7 11 11 12 13 13 14 15 15 16 16 17 17 19 21 23 24 24 27 21 16 5 11 32 19
6 6 7 10 12 10 13 11 11 11 11 12 9 12 13 14 14 15 16 16 17 18 20 20 21 24 26 13 4 3 20 16
3 4 5 8 9 10 11 13 13 11 12 12 10 9 10 10 13 12 13 13 14 15 15 16 17 19 21 21 15 16 3 6
4 2 3 4 4 7 9 10 12 14 13 14 8 12 10 8 11 12 12 11 11 12 13 13 13 13 16 18 20 19 20 12
4 2 1 1 1 3 5 7 9 12 14 14 11 13 13 13 10 11 12 12 13 13 13 12 12 11 12 13 16 16 15 16
6 5 3 2 3 5 7 9 12 15 15 16 17 18 18 18 16 19 15 14 15 16 15 15 15 14 14 13 15 16 18 20
6 3 4 6 7 9 11 14 15 16 17 20 20 20 18 21 21 18 20 21 20 19 18 19 18 18 19 18 17 18 18 18

GFSFLT2_925_spd_315.txt.gz
Wind_Speed
18 18 17 18 21 19 17 21 18 13 12 12 15 11 5 10 10 15 15 14 12 10 9 8 7 8 8 7 4 4 7 7
12 14 15 11 16 20 21 18 20 19 17 19 13 16 13 8 12 13 15 14 12 13 13 12 10 10 8 7 7 8 7 8
16 14 19 13 16 16 20 18 21 20 18 18 22 21 15 12 12 14 13 13 11 14 14 14 16 15 11 13 13 11 10 8
17 17 19 17 16 20 16 20 20 20 19 20 17 19 19 21 20 18 14 15 14 17 12 15 16 15 12 8 12 15 14 13
18 16 18 20 13 18 19 18 20 22 22 19 18 19 24 23 19 22 21 22 22 21 21 21 17 15 10 14 14 14 15 8
13 15 17 17 17 17 19 19 19 23 22 21 21 23 27 23 21 22 22 25 21 19 20 20 20 16 15 16 13 14 15 11
12 13 15 15 17 15 19 19 20 21 23 23 21 23 24 22 20 21 24 24 22 20 21 21 21 21 21 21 20 16 11 10
13 14 14 14 16 16 17 17 17 19 21 23 21 22 22 22 20 23 24 23 21 18 20 21 22 24 24 22 19 16 10 17
11 12 13 12 14 15 15 14 15 17 20 21 21 21 23 23 22 23 23 21 22 21 20 18 21 25 29 26 22 18 17 21
10 12 9 10 6 12 12 13 14 18 20 19 20 20 20 21 22 21 21 23 24 25 23 25 28 27 28 24 23 20 18 18
12 8 9 12 8 8 14 13 13 16 20 23 21 19 21 17 21 18 21 24 25 27 24 25 29 31 27 26 22 18 15 16
11 9 11 11 9 12 9 11 10 13 17 20 21 21 19 20 19 19 21 23 25 28 27 23 28 32 29 23 17 30 37 30
10 10 9 11 8 8 9 9 10 13 16 16 20 21 21 18 19 19 19 21 23 24 26 27 25 31 26 27 16 13 26 25
10 9 8 12 10 16 4 9 11 12 14 11 12 17 18 18 18 19 17 18 22 21 24 25 23 27 20 9 5 9 31 11
10 9 9 12 12 13 15 13 14 11 14 12 8 10 10 12 16 17 17 16 17 19 21 20 22 23 22 15 4 3 18 7
9 8 10 9 9 10 11 11 12 13 13 14 7 8 8 8 11 14 15 14 15 16 16 17 17 18 19 18 15 16 3 5
9 7 8 6 5 4 2 2 3 7 11 13 13 11 11 9 12 14 14 12 12 14 15 16 16 15 13 17 16 17 16 7
7 5 11 5 5 4 3 3 4 9 14 14 15 16 17 19 16 20 17 15 15 14 15 16 16 15 15 16 13 11 16 15
11 9 9 9 6 1 8 10 11 15 16 18 18 19 19 20 19 21 22 21 21 21 21 20 19 18 17 17 18 20 19 21
14 12 3 9 10 10 10 11 12 14 17 18 18 19 20 21 22 22 22 22 23 24 25 24 24 25 23 23 24 24 23 22